Location: Newark
(39.6867°N, 100.6772°W)
Time: 16:06:59
(UTC+00:00)

Envisat - Visible Passes

Search period start: 23 October 2019 00:00
Search period end: 02 November 2019 00:00
Orbit: 764 x 766 km, 98.1° (Epoch: 23 October)

Date Brightness Start Highest point End Pass type
(mag) Time Alt. Az. Time Alt. Az. Time Alt. Az.
23 Oct 2.9 00:36:24 10° SSE 00:41:26 70° ENE 00:46:30 10° N visible
23 Oct 6.1 02:18:46 10° WSW 02:20:56 13° W 02:23:06 10° WNW visible
24 Oct 5.0 01:39:27 10° SSW 01:43:49 29° W 01:48:13 10° NW visible
24 Oct 6.7 12:12:30 10° ENE 12:13:48 11° E 12:15:05 10° ESE visible
25 Oct 3.4 01:01:53 10° S 01:06:55 66° WSW 01:11:59 10° NNW visible
26 Oct 3.1 00:25:16 10° SSE 00:30:12 55° ENE 00:35:10 10° N visible
26 Oct 5.8 02:06:24 10° SW 02:09:32 16° W 02:12:42 10° NW visible
26 Oct 6.0 12:35:51 10° NE 12:39:35 20° E 12:43:17 10° SE visible
27 Oct 4.5 01:27:50 10° SSW 01:32:29 37° W 01:37:12 10° NNW visible
28 Oct 3.0 00:50:34 10° SSE 00:55:39 84° WSW 01:00:46 10° NNW visible
29 Oct 3.3 00:14:13 10° SE 00:18:59 43° ENE 00:23:47 10° N visible
29 Oct 5.5 01:54:24 10° SW 01:58:10 21° W 02:01:58 10° NW visible
29 Oct 6.2 12:25:09 10° NE 12:28:12 16° E 12:31:14 10° SE visible
30 Oct 4.1 01:16:19 10° S 01:21:10 47° W 01:26:05 10° NNW visible
31 Oct 2.9 00:39:20 10° SSE 00:44:24 77° ENE 00:49:29 10° N visible
31 Oct 6.2 02:22:23 10° WSW 02:23:57 11° W 02:25:32 10° WNW visible
01 Nov 5.1 01:42:35 10° SSW 01:46:49 26° W 01:51:05 10° NW visible
01 Nov 6.4 12:14:49 10° ENE 12:16:49 12° E 12:18:48 10° ESE visible
